• In India
  • List of Countries
  • For 7 days
  • Water Temperature
  • Satellite Maps
  • Weather Map
  • Weather Widgets
  • user-avatar
    Login

    Hourly Weather Rhode Island

    Today, 20 June, Wednesday

    Time Temperature Precipitation Wind Pressure Humidity
    00:00 +18°C° 0 mm 1 mps 757 mmHg 66%
    01:00 +17°C° 0 mm 2 mps 757 mmHg 60%
    02:00 +17°C° 0 mm 2 mps 757 mmHg 64%
    03:00 +16°C° 0 mm 2 mps 757 mmHg 68%
    04:00 +15°C° 0 mm 1 mps 757 mmHg 72%
    05:00 +18°C° 0 mm 1 mps 757 mmHg 68%
    06:00 +20°C° 0 mm 1 mps 758 mmHg 64%
    07:00 +22°C° 0 mm 1 mps 758 mmHg 61%
    08:00 +23°C° 0 mm 1 mps 758 mmHg 57%
    09:00 +25°C° 0 mm 2 mps 757 mmHg 52%
    10:00 +26°C° 0 mm 2 mps 757 mmHg 48%
    11:00 +27°C° 0 mm 3 mps 757 mmHg 46%
    12:00 +28°C° 0 mm 3 mps 756 mmHg 45%
    13:00 +28°C° 0 mm 4 mps 756 mmHg 43%
    14:00 +28°C° 0 mm 4 mps 755 mmHg 45%
    15:00 +28°C° 0 mm 4 mps 755 mmHg 48%
    16:00 +27°C° 0 mm 4 mps 755 mmHg 51%
    17:00 +26°C° 0 mm 4 mps 755 mmHg 59%
    18:00 +23°C° 0 mm 4 mps 755 mmHg 67%
    19:00 +22°C° 0 mm 4 mps 755 mmHg 75%
    20:00 +21°C° 0 mm 4 mps 755 mmHg 79%
    21:00 +20°C° 0 mm 3 mps 755 mmHg 84%
    22:00 +19°C° 0 mm 3 mps 755 mmHg 89%
    23:00 +19°C° 0 mm 3 mps 755 mmHg 90%

    Tomorrow, 21 June, Thursday

    Time Temperature Precipitation Wind Pressure Humidity
    00:00 +19°C° 0 mm 2 mps 754 mmHg 92%
    01:00 +19°C° 0 mm 2 mps 754 mmHg 93%
    02:00 +19°C° 3.5 mm 2 mps 754 mmHg 95%
    03:00 +19°C° 3.5 mm 2 mps 754 mmHg 96%
    04:00 +20°C° 3.5 mm 1 mps 754 mmHg 98%
    05:00 +19°C° 3.9 mm 2 mps 754 mmHg 98%
    06:00 +19°C° 3.9 mm 2 mps 754 mmHg 98%
    07:00 +19°C° 3.9 mm 3 mps 754 mmHg 98%
    08:00 +21°C° 0.9 mm 3 mps 754 mmHg 91%
    09:00 +22°C° 0.9 mm 3 mps 754 mmHg 84%
    10:00 +24°C° 0.9 mm 3 mps 754 mmHg 77%
    11:00 +25°C° 0 mm 3 mps 754 mmHg 69%
    12:00 +26°C° 0 mm 3 mps 754 mmHg 62%
    13:00 +28°C° 0 mm 3 mps 754 mmHg 55%
    14:00 +27°C° 0 mm 3 mps 754 mmHg 57%
    15:00 +26°C° 0 mm 3 mps 754 mmHg 60%
    16:00 +26°C° 0 mm 4 mps 754 mmHg 62%
    17:00 +24°C° 0.1 mm 3 mps 754 mmHg 70%
    18:00 +22°C° 0.1 mm 3 mps 755 mmHg 78%
    19:00 +20°C° 0.1 mm 3 mps 755 mmHg 85%
    20:00 +19°C° 0 mm 3 mps 756 mmHg 88%
    21:00 +18°C° 0 mm 3 mps 757 mmHg 92%
    22:00 +17°C° 0 mm 2 mps 757 mmHg 95%
    23:00 +17°C° 0 mm 2 mps 758 mmHg 95%

    Day after tomorrow, 22 June, Friday

    Time Temperature Precipitation Wind Pressure Humidity
    00:00 +16°C° 0 mm 2 mps 758 mmHg 96%
    01:00 +16°C° 0 mm 2 mps 758 mmHg 96%
    02:00 +16°C° 0 mm 3 mps 759 mmHg 96%
    03:00 +16°C° 0 mm 3 mps 759 mmHg 96%
    04:00 +16°C° 0 mm 3 mps 759 mmHg 97%
    05:00 +17°C° 0 mm 3 mps 760 mmHg 93%
    06:00 +18°C° 0 mm 4 mps 760 mmHg 89%
    07:00 +19°C° 0 mm 4 mps 761 mmHg 85%
    08:00 +20°C° 0 mm 4 mps 761 mmHg 74%
    09:00 +22°C° 0 mm 4 mps 761 mmHg 64%
    10:00 +23°C° 0 mm 4 mps 761 mmHg 53%
    11:00 +25°C° 0 mm 4 mps 761 mmHg 48%
    12:00 +25°C° 0 mm 5 mps 761 mmHg 43%
    13:00 +26°C° 0 mm 5 mps 761 mmHg 38%
    14:00 +25°C° 0 mm 4 mps 761 mmHg 40%
    15:00 +23°C° 0 mm 4 mps 761 mmHg 42%
    16:00 +22°C° 0 mm 4 mps 761 mmHg 43%
    17:00 +20°C° 0 mm 4 mps 761 mmHg 48%
    18:00 +19°C° 0 mm 4 mps 761 mmHg 53%
    19:00 +18°C° 0 mm 3 mps 761 mmHg 58%
    20:00 +17°C° 0 mm 3 mps 761 mmHg 58%
    21:00 +17°C° 0 mm 3 mps 761 mmHg 58%
    22:00 +17°C° 0 mm 4 mps 761 mmHg 58%
    23:00 +16°C° 0 mm 3 mps 761 mmHg 59%

    23 June, Saturday

    Time Temperature Precipitation Wind Pressure Humidity
    00:00 +16°C° 0 mm 3 mps 761 mmHg 60%
    01:00 +16°C° 0 mm 2 mps 760 mmHg 61%
    02:00 +16°C° 0.1 mm 3 mps 760 mmHg 62%
    03:00 +16°C° 0.1 mm 3 mps 760 mmHg 63%
    04:00 +16°C° 0.1 mm 3 mps 760 mmHg 64%
    05:00 +16°C° 0.1 mm 3 mps 759 mmHg 69%
    06:00 +16°C° 0.1 mm 3 mps 759 mmHg 73%
    07:00 +16°C° 0.1 mm 3 mps 759 mmHg 78%
    08:00 +17°C° 0.1 mm 4 mps 759 mmHg 80%
    09:00 +18°C° 0.1 mm 4 mps 759 mmHg 81%
    10:00 +19°C° 0.1 mm 4 mps 758 mmHg 83%
    11:00 +20°C° 0.1 mm 4 mps 758 mmHg 83%
    12:00 +20°C° 0.1 mm 3 mps 758 mmHg 84%
    13:00 +21°C° 0.1 mm 3 mps 758 mmHg 84%
    14:00 +21°C° 0.1 mm 3 mps 757 mmHg 83%
    15:00 +21°C° 0.1 mm 3 mps 757 mmHg 83%
    16:00 +22°C° 0.1 mm 3 mps 757 mmHg 83%
    17:00 +21°C° 0 mm 2 mps 757 mmHg 85%
    18:00 +21°C° 0 mm 2 mps 757 mmHg 88%
    19:00 +20°C° 0 mm 2 mps 757 mmHg 91%
    20:00 +20°C° 0.6 mm 2 mps 757 mmHg 93%
    21:00 +19°C° 0.6 mm 2 mps 757 mmHg 96%
    22:00 +18°C° 0.6 mm 2 mps 756 mmHg 98%
    23:00 +19°C° 1.8 mm 2 mps 756 mmHg 98%

    24 June, Sunday

    Time Temperature Precipitation Wind Pressure Humidity
    00:00 +19°C° 1.8 mm 2 mps 755 mmHg 99%
    01:00 +19°C° 1.8 mm 2 mps 755 mmHg 99%
    02:00 +19°C° 0.6 mm 2 mps 755 mmHg 99%
    03:00 +20°C° 0.6 mm 2 mps 754 mmHg 99%
    04:00 +20°C° 0.6 mm 2 mps 754 mmHg 99%
    05:00 +21°C° 0 mm 2 mps 754 mmHg 98%
    06:00 +21°C° 0 mm 2 mps 754 mmHg 97%
    07:00 +23°C° 0 mm 2 mps 754 mmHg 96%
    08:00 +25°C° 0 mm 3 mps 754 mmHg 86%
    09:00 +27°C° 0 mm 3 mps 754 mmHg 77%
    10:00 +28°C° 0 mm 4 mps 754 mmHg 67%
    11:00 +29°C° 0 mm 5 mps 754 mmHg 64%
    12:00 +30°C° 0 mm 5 mps 753 mmHg 61%
    13:00 +32°C° 0 mm 6 mps 753 mmHg 58%
    14:00 +30°C° 0 mm 6 mps 753 mmHg 58%
    15:00 +30°C° 0 mm 6 mps 753 mmHg 59%
    16:00 +30°C° 0 mm 6 mps 752 mmHg 60%
    17:00 +28°C° 0 mm 6 mps 752 mmHg 65%
    18:00 +27°C° 0 mm 5 mps 753 mmHg 71%
    19:00 +26°C° 0 mm 5 mps 753 mmHg 76%
    20:00 +25°C° 0 mm 5 mps 753 mmHg 79%
    21:00 +23°C° 0 mm 4 mps 753 mmHg 82%
    22:00 +24°C° 0 mm 3 mps 753 mmHg 85%
    23:00 +23°C° 0.2 mm 4 mps 753 mmHg 86%

    25 June, Monday

    Time Temperature Precipitation Wind Pressure Humidity
    00:00 +22°C° 0.2 mm 4 mps 753 mmHg 86%
    01:00 +22°C° 0.2 mm 4 mps 753 mmHg 87%
    02:00 +22°C° 0.3 mm 4 mps 753 mmHg 90%
    03:00 +21°C° 0.3 mm 4 mps 753 mmHg 93%
    04:00 +21°C° 0.3 mm 3 mps 752 mmHg 96%
    05:00 +21°C° 0.8 mm 3 mps 753 mmHg 96%
    06:00 +21°C° 0.8 mm 3 mps 753 mmHg 97%
    07:00 +21°C° 0.8 mm 3 mps 753 mmHg 97%
    08:00 +21°C° 0.8 mm 3 mps 753 mmHg 96%
    09:00 +21°C° 0.8 mm 3 mps 753 mmHg 95%
    10:00 +21°C° 0.8 mm 3 mps 754 mmHg 94%
    11:00 +24°C° 0.5 mm 3 mps 754 mmHg 83%
    12:00 +25°C° 0.5 mm 4 mps 754 mmHg 73%
    13:00 +26°C° 0.5 mm 5 mps 755 mmHg 62%
    14:00 +27°C° 0 mm 5 mps 755 mmHg 52%
    15:00 +27°C° 0 mm 6 mps 756 mmHg 42%
    16:00 +27°C° 0 mm 6 mps 756 mmHg 32%
    17:00 +25°C° 0 mm 5 mps 757 mmHg 39%
    18:00 +23°C° 0 mm 4 mps 758 mmHg 46%
    19:00 +21°C° 0 mm 3 mps 759 mmHg 53%
    20:00 +20°C° 0 mm 3 mps 760 mmHg 54%
    21:00 +19°C° 0 mm 3 mps 761 mmHg 54%
    22:00 +18°C° 0 mm 4 mps 762 mmHg 55%
    23:00 +17°C° 0 mm 3 mps 762 mmHg 57%
    Show more